www.pogodaiklimat.ru

Погода и климат >> Архив погоды >> Дания >> Сяелсмарк


ПОГОДА в Сяелсмарке

  • Прогноз погоды в Сяелсмарке
  • Монитор погоды в Сяелсмарке

АРХИВ ПОГОДЫ в Сяелсмарке

Время (UTC), дата Ветер
(напр.,м/с)
 
Видим.   Явления Облачность Т
(С)
Тd
(С)
f
(%)
Тe
(С)
Тes
(С)
Комфортность P
(гПа)
Po
(гПа)
Тmin
(С)
Tmax
(С)
R
(мм)
R24
(мм)
S
(см)
07 12.06 В 3 30 км в посл. час дождь {ливн. осадки} 5/5 1500 м
[]
+17.8 +16.7 93 +18 +21 1011.7 1006.9
08 12.06 В 5 35 км 1/1 420 м
[]
+18.7 +15.4 81 +19 +24 1011.6 1006.8
09 12.06 В 5 35 км {ливн. осадки, дождь} 8/8 1500 м
[]
+19.6 +16.3 81 +22 +23 комфорт 1011.7 1006.8 0.0
10 12.06 В 4 н/о 9/9 400 м
[]
+19.1 +16.4 84 +21 +22 комфорт 1011.7 1006.8
11 12.06 В 3 30 км 10/10 400 м
[]
+19.5 +16.5 83 +22 +22 комфорт 1011.7 1006.8
12 12.06 В 3
{9}
30 км {ливн. осадки, дождь} 10/10 450 м
[]
+19.8 +16.7 82 +22 +22 комфорт 1011.3 1006.4
13 12.06 В 4 25 км 9/9 480 м
[]
+20.9 +17.2 79 +25 +26 комфорт 1010.5 1005.6
14 12.06 В 4 25 км 3/3 540 м
[]
+22.2 +17.6 75 +27 +32 душно 1009.7 1004.9
15 12.06 В 5 27 км 9/9 630 м
[]
+22.0 +17.3 75 +26 +27 душно 1009.1 1004.3
16 12.06 В 6 27 км ясно +22.0 +17.4 75 +26 +29 душно 1008.0 1003.2
17 12.06 В 5 23 км ясно +21.5 +17.3 77 +26 +27 душно 1007.7 1002.9
18 12.06 В 4 23 км ясно +20.2 +16.9 81 +23 +24 комфорт 1008.2 1003.4 +15.6 +22.5
19 12.06 В 4 16 км 8/8 1050 м
[]
+18.8 +16.4 86 +20 +20 1008.3 1003.4
20 12.06 В 3 13 км ясно +17.5 +15.9 90 +18 +18 1008.3 1003.4
21 12.06 ЮВ 5
{9}
4000 м сильн. дождь {морось} 9/9 240 м
[]
+16.5 +15.9 96 +16 +16 1010.0 1005.1 4
22 12.06 СВ 2 4400 м дождь 10/0 2000 м
[]
+16.3 +16.0 98 +17 +17 1008.0 1003.1 5
23 12.06 В 1 4800 м в посл. час дождь 9/9 90 м
[]
+15.9 +15.7 99 +17 +17 1007.8 1002.9 0.9
00 13.06 ЮЗ 3
{9}
6000 м дымка {дождь} 9/9 90 м
[]
+16.0 +15.8 99 +16 +16 1008.8 1003.9 6
01 13.06 Ю 2 3900 м дымка 10/10 120 м
[]
+15.5 +15.3 99 +16 +16 1009.8 1004.9
02 13.06 Ю 2 4400 м дымка 10/10 120 м
[]
+15.5 +15.3 99 +15 +15 1010.0 1005.0
03 13.06 Ю 1 4200 м дымка 10/10 180 м
[]
+15.6 +15.4 99 +16 +16 1010.4 1005.5
04 13.06 ЮЗ 3 5000 м дымка 8/8 240 м
[]
+15.2 +14.8 97 +15 +15 1010.7 1005.8
05 13.06 ЮЗ 3 6000 м дымка 9/0
[]
+15.0 +14.0 94 +14 +15 1011.5 1006.6
06 13.06 ЮЗ 4 10 км {дымка} 9/9 300 м
[]
+15.5 +13.2 86 +14 +15 1012.0 1007.0 +14.9 +20.3
07 13.06 З 5 17 км 8/8 420 м
[]
+16.1 +12.7 80 +15 +16 1012.2 1007.3
08 13.06 З 4 25 км 9/0
[]
+17.7 +12.4 71 +18 +22 1012.6 1007.7
09 13.06 ЮЗ 3 30 км ясно +18.1 +11.4 65 +19 +30 1013.8 1008.9
10 13.06 Ю 2 35 км 6/6 900 м
[]
+18.9 +12.1 65 +21 +27 комфорт 1013.8 1008.9
11 13.06 Ю 2 40 км 3/3 1140 м
[]
+20.1 +11.7 58 +22 +33 комфорт 1014.0 1009.1
12 13.06 Ю 2
{7}
45 км 5/5 1230 м
[]
+20.1 +12.0 60 +22 +30 комфорт 1013.8 1009.0
13 13.06 ЮВ 3 40 км 5/5 1200 м
[]
+20.1 +12.6 62 +22 +29 комфорт 1013.9 1009.0
14 13.06 Ю 4 35 км 3/3 1260 м
[]
+20.8 +12.6 59 +23 +29 комфорт 1014.0 1009.2
15 13.06 Ю 3 35 км ясно +20.8 +12.6 59 +23 +30 комфорт 1014.1 1009.2
16 13.06 Ю 3 40 км ясно +20.7 +11.5 56 +23 +27 комфорт 1014.4 1009.5
17 13.06 Ю 3 50 км 1/1 1500 м
[]
+20.1 +10.8 55 +22 +24 комфорт 1014.7 1009.8
18 13.06 Ю 2 45 км 8/0 2000 м
[]
+19.7 +10.4 55 +21 +22 комфорт 1014.6 1009.7 +15.3 +21.2
19 13.06 ЮВ 2 50 км 1/0 2000 м
[]
+18.0 +11.2 64 +19 +19 1014.9 1010.0
20 13.06 ЮЗ 3 45 км 9/9 1500 м
[]
+17.2 +12.1 72 +17 +17 1016.1 1011.2
21 13.06 СВ 1
{8}
45 км в посл. час дождь {ливн. осадки} 1/1 1410 м
[]
+14.8 +12.7 87 +15 +15 1015.9 1010.9 0.0
22 13.06 В 2 45 км 9/9 1500 м
[]
+14.3 +12.5 89 +14 +14 1015.8 1010.8
23 13.06 В 2 27 км слаб. ливневой дождь 9/9 1500 м
[]
+13.9 +13.1 95 +14 +14 1016.8 1011.8 2
00 14.06 Ю 2
{8}
35 км слаб. ливневой дождь 10/0 2000 м
[]
+14.1 +12.4 89 +14 +14 1016.5 1011.6 3
01 14.06 ЮВ 2 45 км в посл. час морось {ливн. осадки} 9/0
[]
+13.9 +12.6 92 +14 +14 1016.7 1011.7
02 14.06 ЮВ 6 6000 м дождь 10/10 420 м
[]
+14.1 +13.2 94 +12 +12 1016.8 1011.8 3
03 14.06 ЮВ 3
{10}
30 км в посл. час дождь {ливн. осадки} 3/0 2000 м
[]
+13.6 +12.9 96 +13 +13 1017.3 1012.3 3
04 14.06 ЮВ 1 27 км ясно +14.1 +13.3 95 +14 +15 1017.5 1012.6
05 14.06 ЮВ 2 30 км ясно +15.1 +13.4 90 +15 +17 1017.6 1012.6
06 14.06 Ю 2
{10}
35 км {ливн. осадки, дождь} ясно +17.1 +13.1 77 +18 +22 1017.9 1013.0 +13.4 +19.8
07 14.06 Ю 3 45 км ясно +18.3 +12.5 69 +19 +25 1018.3 1013.4
08 14.06 Ю 3 40 км ясно +19.5 +11.6 60 +21 +29 комфорт 1018.8 1013.9
09 14.06 Ю 3 30 км ясно +21.1 +12.5 58 +23 +35 комфорт 1018.8 1013.9
10 14.06 Ю 4 45 км ясно +22.2 +12.1 53 +25 +36 комфорт 1019.0 1014.1
11 14.06 Ю 3 30 км ясно +23.2 +11.9 49 +26 +40 жарко 1018.9 1014.1
12 14.06 Ю 3 35 км ясно +23.5 +11.2 46 +25 +38 комфорт 1019.1 1014.2
13 14.06 Ю 3 35 км ясно +24.2 +10.1 41 +25 +37 комфорт 1019.0 1014.1
14 14.06 ЮВ 3 40 км ясно +24.0 +13.6 52 +26 +36 жарко 1018.8 1014.0
15 14.06 ЮВ 3 30 км 1/0
[]
+23.4 +10.6 44 +25 +32 комфорт 1018.3 1013.5
16 14.06 ЮВ 3 35 км 6/0
[]
+22.3 +13.6 58 +25 +29 комфорт 1018.0 1013.1
17 14.06 ЮВ 3 45 км 9/0
[]
+20.8 +12.2 58 +24 +25 комфорт 1018.3 1013.5
18 14.06 ЮВ 1 50 км слаб. ливневой дождь 9/9 1500 м
[]
+20.5 +12.3 59 +24 +24 комфорт 1018.4 1013.5 +17.1 +24.4 0.0
19 14.06 С 1 50 км {ливн. осадки} 9/0
[]
+19.5 +12.4 64 +22 +23 комфорт 1019.2 1014.3
20 14.06 ЮВ 4 35 км в посл. час дождь {ливн. осадки} 9/0 2000 м
[]
+18.3 +12.5 69 +19 +19 1020.0 1015.1 0.2
21 14.06 В 1
{9}
12 км дождь {ливн. осадки} 9/0 2000 м
[]
+16.0 +12.3 79 +17 +17 1019.5 1014.5 0.2
22 14.06 СВ 2 50 км в посл. час морось {ливн. осадки, дождь} ясно +15.0 +11.5 80 +15 +15 1018.5 1013.5
23 14.06 В 1 35 км 6/0
[]
+14.7 +12.5 87 +15 +15 1018.0 1013.0
00 15.06 СВ 2
{9}
40 км {ливн. осадки, дождь} ясно +14.7 +13.0 90 +15 +15 1017.9 1012.9 0.0
01 15.06 СВ 2 45 км ясно +14.9 +12.8 87 +15 +15 1017.4 1012.4
02 15.06 В 2 50 км ясно +15.0 +11.6 80 +15 +15 1016.9 1012.0
03 15.06 В 3 50 км 3/0
[]
+15.2 +11.5 79 +15 +15 1016.4 1011.4
04 15.06 В 2 40 км 1/0
[]
+15.8 +12.2 79 +16 +17 1015.8 1010.9
05 15.06 В 3 45 км 3/0
[]
+16.9 +13.3 79 +17 +18 1015.5 1010.6
06 15.06 В 3 27 км 8/0
[]
+18.9 +14.7 77 +20 +22 1015.1 1010.2 +14.3 +20.6
07 15.06 В 5 35 км 1/0
[]
+19.5 +14.6 73 +21 +25 комфорт 1015.0 1010.1
08 15.06 В 5 35 км 8/0
[]
+20.2 +14.8 71 +23 +26 комфорт 1014.9 1010.1
09 15.06 В 4 40 км {дымка} 6/0
[]
+20.8 +13.0 61 +23 +29 комфорт 1014.6 1009.7
10 15.06 В 5 45 км 5/0
[]
+20.8 +11.2 54 +23 +29 комфорт 1014.3 1009.4
11 15.06 В 2 40 км слаб. дождь {морось} 9/0
[]
+18.9 +13.1 69 +20 +29 1015.2 1010.3
12 15.06 В 4 30 км слаб. дождь {морось} 10/0
[]
+16.6 +14.2 86 +16 +22 1015.3 1010.4 2
13 15.06 В 7 9000 м дождь 10/0 2000 м
[]
+15.7 +14.1 90 +14 +16 1012.7 1007.7 3
14 15.06 В 7 35 км слаб. дождь 5/5 1000 м
[]
+16.6 +13.4 81 +15 +17 1012.3 1007.4 1
15 15.06 В 6
{16}
35 км {дождь} 5/0 2000 м
[]
+17.8 +13.3 75 +17 +19 1011.8 1006.9 4
16 15.06 В 6 40 км ясно +18.8 +13.1 69 +19 +21 1011.4 1006.5
17 15.06 В 7 45 км 9/9 1500 м
[]
+18.4 +13.4 73 +18 +18 1011.5 1006.6
18 15.06 В 5
{16}
19 км слаб. дождь 9/9 1410 м
[]
+16.9 +13.6 81 +16 +16 1011.8 1006.8 +15.6 +21.6 0.0
19 15.06 В 4 30 км в посл. час дождь {ливн. осадки} 9/9 1410 м
[]
+16.1 +13.7 86 +15 +15 1011.4 1006.4 0.2
20 15.06 В 2 30 км 10/10 1380 м
[]
+15.9 +13.7 87 +16 +16 1012.3 1007.3
21 15.06 СВ 1 29 км {ливн. осадки, дождь} 10/10 1300 м
[]
+15.9 +14.4 91 +17 +17 1012.6 1007.6 0.2
22 15.06 ЮЗ 1 15 км 9/9 1110 м
[]
+15.6 +14.9 96 +17 +17 1013.0 1008.0
23 15.06 СЗ 1 11 км 10/10 630 м
[]
+15.5 +14.9 96 +17 +17 1013.3 1008.3
00 16.06 штиль 0 5000 м сильн. морось {ливн. осадки, дождь} 10/10 450 м
[]
+15.3 +14.9 97 +15 +15 1013.3 1008.3 0.1
01 16.06 штиль 0 8000 м морось 10/10 240 м
[]
+15.1 +14.8 98 +15 +15 1013.5 1008.5 0.2
02 16.06 штиль 0 6000 м в посл. час морось {ливн. осадки} 9/9 180 м
[]
+15.0 +14.8 99 +15 +15 1013.2 1008.3
03 16.06 ЮЗ 2 5000 м морось {ливн. осадки, дождь} 10/10 120 м
[]
+15.2 +14.9 98 +15 +15 1013.6 1008.6 0.2
04 16.06 З 3 7000 м в посл. час морось {ливн. осадки} 10/10 150 м
[]
+14.9 +14.5 97 +14 +14 1014.1 1009.2
05 16.06 З 4 16 км н/о +14.7 +14.1 96 +14 +14 1014.4 1009.5
06 16.06 З 5 28 км {ливн. осадки, дождь} 10/10 270 м
[]
+14.5 +13.2 92 +13 +13 1015.4 1010.4 +14.4 +16.9 0.0
07 16.06 З 5 29 км 10/10 300 м
[]
+14.4 +12.9 91 +13 +13 1016.1 1011.1
08 16.06 З 5 40 км 9/9 420 м
[]
+16.2 +13.2 82 +15 +16 1016.3 1011.4
09 16.06 З 6
{11}
35 км ясно +17.6 +10.3 62 +17 +22 1016.7 1011.8
10 16.06 СЗ 6 40 км ясно +18.6 +10.7 60 +19 +25 1017.5 1012.6
11 16.06 З 6 35 км ясно +19.1 +11.0 59 +20 +27 1017.9 1013.0
12 16.06 З 6
{11}
35 км ясно +19.3 +11.7 61 +20 +27 1018.1 1013.3
13 16.06 З 5 35 км 1/1 1050 м
[]
+19.5 +11.1 58 +20 +27 1018.7 1013.8
14 16.06 З 6 40 км 1/1 960 м
[]
+19.6 +11.8 61 +21 +25 комфорт 1019.2 1014.3
15 16.06 СЗ 4 40 км 4/4 1080 м
[]
+18.9 +10.1 57 +20 +23 1019.1 1014.2
16 16.06 З 4 45 км 1/1 1170 м
[]
+18.3 +11.8 66 +18 +22 1019.2 1014.3
17 16.06 З 4 50 км 5/0
[]
+18.1 +12.4 69 +18 +20 1019.4 1014.5
18 16.06 З 3 50 км 5/0
[]
+17.9 +12.4 70 +18 +19 1019.4 1014.5 +14.3 +20.3
19 16.06 З 3 50 км 4/0
[]
+18.0 +12.2 69 +18 +18 1019.3 1014.4
20 16.06 З 2 45 км ясно +15.5 +12.2 81 +16 +16 1019.5 1014.5
21 16.06 З 1 20 км ясно +13.0 +11.9 93 +13 +13 1019.9 1014.9
22 16.06 З 1 35 км ясно +13.1 +12.1 94 +14 +14 1020.2 1015.2
23 16.06 штиль 0 23 км ясно +12.6 +12.0 96 +12 +12 1020.2 1015.2
00 17.06 штиль 0 5000 м дымка ясно +11.7 +11.2 97 +11 +11 1020.4 1015.4
01 17.06 штиль 0 400 м туман {дымка} ясно +11.3 +11.0 98 +11 +11 1020.6 1015.5
02 17.06 штиль 0 4700 м в посл. час туман 4/0 2000 м
[]
+11.6 +11.4 99 +11 +11 1020.9 1015.9
03 17.06 штиль 0 2100 м туман {дымка} 1/0 2000 м
[]
+10.9 +10.7 99 +10 +10 1020.9 1015.8
04 17.06 З 2 13 км {туман} ясно +12.5 +12.3 99 +11 +12 1021.0 1016.0
05 17.06 З 1 18 км ясно +14.8 +13.5 92 +16 +18 1021.0 1016.0
06 17.06 З 3 30 км {туман, дымка} ясно +16.2 +12.9 81 +16 +20 1021.3 1016.3 +10.4 +18.6
07 17.06 З 4 40 км 1/1 540 м
[]
+17.1 +11.0 67 +17 +21 1021.6 1016.7
08 17.06 З 3 40 км 4/4 840 м
[]
+18.2 +11.6 65 +19 +24 1021.8 1016.9
09 17.06 З 4 35 км 4/4 900 м
[]
+19.4 +11.9 62 +21 +26 комфорт 1021.8 1016.9
10 17.06 З 3 35 км 6/6 1320 м
[]
+19.5 +11.7 61 +21 +26 комфорт 1021.6 1016.7
11 17.06 З 3 45 км 4/4 1170 м
[]
+20.4 +12.0 59 +23 +30 комфорт 1021.5 1016.6
12 17.06 З 4 50 км 8/8 1500 м
[]
+20.5 +12.0 58 +23 +25 комфорт 1021.3 1016.5
13 17.06 З 5 35 км 4/4 1200 м
[]
+21.6 +12.7 57 +24 +29 комфорт 1021.2 1016.4
14 17.06 З 5 40 км 8/8 1170 м
[]
+20.6 +12.6 60 +23 +24 комфорт 1021.3 1016.4
15 17.06 З 4 35 км 1/1 1260 м
[]
+22.0 +12.3 54 +24 +30 комфорт 1021.1 1016.2
16 17.06 З 4 40 км ясно +21.9 +12.9 57 +25 +28 комфорт 1020.8 1016.0
17 17.06 З 4 45 км ясно +21.3 +11.9 55 +23 +25 комфорт 1020.7 1015.8
18 17.06 З 2 45 км ясно +21.1 +13.0 60 +23 +24 комфорт 1020.6 1015.8 +16.2 +22.1
19 17.06 СЗ 1 50 км ясно +20.2 +13.4 65 +23 +24 комфорт 1020.5 1015.6
20 17.06 штиль 0 50 км ясно +16.2 +13.5 84 +16 +16 1020.7 1015.7
21 17.06 штиль 0 30 км ясно +14.2 +13.2 94 +14 +14 1020.6 1015.6
22 17.06 штиль 0 19 км ясно +13.0 +12.4 96 +12 +12 1020.6 1015.6
23 17.06 штиль 0 5000 м дымка ясно +12.6 +12.2 97 +12 +12 1020.5 1015.4
00 18.06 штиль 0 4700 м дымка ясно +12.7 +12.4 98 +12 +12 1020.4 1015.4
01 18.06 штиль 0 11 км ясно +14.1 +13.9 99 +14 +14 1020.2 1015.2
02 18.06 штиль 0 21 км ясно +13.7 +13.5 99 +13 +13 1020.1 1015.1
03 18.06 ЮВ 1 30 км {дымка} ясно +14.2 +13.2 94 +15 +15 1019.8 1014.8
04 18.06 ЮВ 1 40 км ясно +15.8 +13.7 87 +16 +17 1019.6 1014.6
05 18.06 Ю 3 35 км ясно +17.4 +13.5 78 +18 +19 1019.3 1014.3
06 18.06 Ю 3 35 км {дымка} 1/0
[]
+18.9 +13.3 70 +20 +24 1019.0 1014.1 +12.2 +21.2
07 18.06 Ю 3 40 км ясно +20.6 +13.1 62 +23 +29 комфорт 1018.8 1013.9
08 18.06 ЮВ 5 40 км 4/0 2000 м
[]
+21.2 +11.1 52 +23 +27 комфорт 1018.4 1013.5
09 18.06 ЮВ 4 45 км 1/0 2000 м
[]
+21.5 +12.8 58 +24 +33 комфорт 1018.1 1013.2
10 18.06 ЮВ 4 35 км 4/0 2000 м
[]
+22.1 +12.9 56 +25 +34 комфорт 1017.8 1013.0
11 18.06 ЮВ 3 35 км 1/0 2000 м
[]
+23.9 +13.3 51 +26 +38 жарко 1017.5 1012.6
12 18.06 ЮВ 5
{10}
40 км 6/0
[]
+23.0 +13.5 55 +26 +33 жарко 1017.1 1012.3
13 18.06 Ю 4 35 км 3/0
[]
+24.2 +14.5 55 +27 +35 жарко 1016.7 1011.9
14 18.06 ЮВ 5 40 км ясно +24.1 +14.7 56 +27 +33 жарко 1015.9 1011.1
15 18.06 Ю 3 45 км ясно +24.6 +14.9 55 +27 +34 жарко 1015.2 1010.4
16 18.06 В 3 40 км ясно +23.3 +15.1 60 +27 +32 душно 1015.0 1010.1
17 18.06 ЮВ 3 35 км ясно +22.6 +15.0 62 +26 +29 жарко 1014.7 1009.9
18 18.06 ЮВ 3 35 км ясно +22.3 +14.9 63 +26 +27 жарко 1014.3 1009.4 +18.9 +24.8
19 18.06 ЮВ 2 45 км ясно +21.0 +14.1 65 +25 +25 комфорт 1014.3 1009.4
20 18.06 СВ 2 40 км 9/0
[]
+18.9 +14.4 75 +21 +21 комфорт 1014.4 1009.5
21 18.06 ЮЗ 3 40 км 8/0 2000 м
[]
+18.5 +14.3 77 +19 +19 1014.6 1009.7
22 18.06 Ю 1 11 км дождь 9/9 1080 м
[]
+18.5 +15.1 81 +20 +20 1014.3 1009.4 0.1
23 18.06 ЮЗ 1 25 км {ливн. осадки, дождь} 9/0 2000 м
[]
+16.7 +15.5 93 +18 +18 1014.0 1009.1
00 19.06 Ю 1 23 км {ливн. осадки, дождь} 9/0
[]
+16.9 +15.4 91 +18 +18 1013.9 1009.0 0.1
01 19.06 ЮЗ 1 45 км в посл. час морось {ливн. осадки, дождь} 9/0
[]
+17.7 +14.4 81 +19 +19 1012.9 1008.0
02 19.06 СВ 1 21 км в посл. час дождь {ливн. осадки} 4/0
[]
+15.7 +14.8 94 +17 +17 1012.5 1007.6
03 19.06 штиль 0 17 км {ливн. осадки, дождь} 5/0
[]
+15.0 +14.5 97 +15 +15 1012.3 1007.4 0.0
04 19.06 В 2 10 км слаб. ливневой дождь 9/0
[]
+15.7 +15.5 99 +16 +16 1011.9 1007.0 0.1
05 19.06 СЗ 1 18 км {ливн. осадки} 9/0
[]
+17.0 +16.1 94 +18 +19 1011.9 1007.0
06 19.06 СВ 1 26 км {ливн. осадки, дождь} 4/0
[]
+19.1 +16.7 86 +22 +26 комфорт 1011.6 1006.8 +14.2 +22.3 0.1
07 19.06 В 1 28 км 8/0 2000 м
[]
+20.1 +16.8 81 +24 +29 комфорт 1011.5 1006.7
08 19.06 Ю 2 24 км 6/0 2000 м
[]
+21.9 +16.6 72 +26 +34 душно 1011.5 1006.7

 

Местоположение метеостанции Сяелсмарк (Дания): широта 55.88 долгота 12.41 высота над уровнем моря 41 м.

В архиве по умолчанию представлена погода в Сяелсмарке за последнюю неделю. Архивные данные за месяц целиком и за предыдущие месяцы, начиная с января 2011 года, Вы можете получить, выбрав интересующий диапазон дат из раскрывающегося списка и нажав кнопку "Ввод!".


*Определитесь, кто Вы:
робот инопланетянин человек

Внимание! Время в таблицах - всемирное. Для получения местного времени необходимо прибавить поправку, которая равна 1 ч.

Смотрите также архив погоды в соседних городах и на ближайших метеорологических станциях:

Погода в Копенгагене Jaegers (Дания) (16 км)
Погода на Мысе Nakkehoved (Дания) (27 км)
Погода в Хельсингборге (Швеция) (28 км)
Погода в Копенгагене (Дания) (33 км)
Погода в Роскилле (Дания) (38 км)
Погода на Дрогдене (Дания) (44 км)
Погода в Хольбеке (Дания) (53 км)
Погода в Мальмё (Швеция) (54 км)
Погода в Ангелхольме (Швеция) (54 км)
Погода в Кёге (Дания) (56 км)

Пояснения к столбцам:

Ветер - указаны скорость ветра в м/с - средняя за 10 мин, порывы в срок и между сроками (в фигурных скобках) и направление, откуда дует ветер: С - северный, СВ - северо-восточный, В - восточный, ЮВ - юго-восточный, Ю - южный, ЮЗ - юго-западный, З - западный, СЗ - северо-западный.
Видимость - горизонтальная дальность видимости в метрах или километрах. При видимости от 1 до 10 км при отсутствии осадков обычно наблюдается дымка, при ухудшении видимости до 1 км и менее - туман. В сухую погоду видимость может ухудшаться дымом, пылью или мглою.
Явления - указаны атмосферные явления, наблюдавшиеся в срок или в последний час перед сроком; фигурными скобками обозначены явления, наблюдавшиеся между сроками (за 1-3 часа до срока); квадратными скобками обозначены град или гололедные отложения с указанием их диаметра в мм.
Облачность - указаны через наклонную черту общая и нижняя облачность в баллах и высота нижней границы облаков в метрах; квадратными скобками обозначены формы облаков: Ci - перистые, Cs - перисто-слоистые, Cc - перисто-кучевые, Ac - высококучевые, As - высокослоистые, Sc - слоисто-кучевые, Ns - слоисто-дождевые, Cu - кучевые, Cb - кучево-дождевые. Подробнее классификацию облаков см. в Атласе облаков (PDF).
T - Температура воздуха - температура, измеренная на высоте 2 м над землей.
Td - Температура точки росы - температура, при понижении до которой содержащийся в воздухе водяной пар достигнет насыщения.
f - Относительная влажность воздуха - влажноcть воздуха, измеренная на высоте 2 м над землей.
Te - Эффективная температура - температура, которую ощущает одетый по сезону человек в тени. Характеристика душности погоды. При расчете учитывается влияние влажности воздуха и скорости ветра на теплоощущения человека.
Tes - Эффективная температура на солнце - температура, которую ощущает человек, с поправкой на солнечный нагрев. Характеристика знойности погоды. Зависит от высоты солнца над горизонтом, облачности и скорости ветра. Ночью, в пасмурную погоду, а также при ветре 12 м/с и более поправка равна нулю.
P - Атмосферное давление - приведенное к уровню моря атмосферное давление.
Po - Атмосферное давление - измеренное на уровне метеостанции атмосферное давление.
Tmin - Минимальная температура - минимум температуры воздуха на высоте 2 м над землей.
Tmax - Максимальная температура - максимум температуры воздуха на высоте 2 м над землей.
R - Количество осадков - Количество выпавших осадков за период времени, мм. При наведении курсора мыши на число - период времени, за который выпало указанное количество осадков.
R24 - Количество осадков - Количество выпавших осадков за 24 часа, мм.
S - Снежный покров - Высота снежного покрова, см. При наведении курсора мыши на число - состояние снежного покрова и степень покрытия местности в баллах.